Regional Weather Roundup
Issued by NWS Green Bay, WI

Home | Current Version | Previous Version | Text Only | Print | Product List | Glossary On
Versions: 1 2 3 4 5 6 7 8 9 10 11 12 13 14 15 16 17 18 19 20 21 22 23 24 25 26 27 28 29 30 31 32 33 34 35 36 37 38 39 40 41 42 43 44 45 46 47 48 49 50
000
ASUS43 KGRB 252011
RWRGRB

NORTH-CENTRAL AND NORTHEAST WISCONSIN REGIONAL WEATHER ROUNDUP
NATIONAL WEATHER SERVICE GREEN BAY WI
300 PM CDT SUN JUN 25 2017

WIZ005-009-010>012-018-019-252100-
NORTH CENTRAL WISCONSIN

CITY           SKY/WX    TMP DP  RH WIND       PRES   REMARKS
IRONWOOD       TSTM      56  51  84 NW7       30.03R
MANITOWISH WTR TSTM      53  53 100 W12       30.02R
ARBOR VITAE    CLOUDY    55  52  90 W12       30.02R
EAGLE RIVER    LGT RAIN  56  51  80 W12       30.00R
LAND O LAKES   TSTM      55  52  91 NW3       30.00F
RHINELANDER    LGT RAIN  55  53  93 W15       30.03R
PHILLIPS       CLOUDY    53  52  99 NW7       30.04S
ANTIGO         CLOUDY    60  53  76 W9        30.02S
TOMAHAWK       NOT AVBL
MERRILL        CLOUDY    62  51  65 W14       30.02F
$$

WIZ013-073-252100-
NORTHEAST WISCONSIN

CITY           SKY/WX    TMP DP  RH WIND       PRES   REMARKS
IRON MOUNTAIN  SUNNY     67  45  45 CALM      29.95F
MARINETTE      CLOUDY    67  53  61 S5        29.98S
OCONTO         CLOUDY    64  54  70 SE6       29.98F
$$

WIZ017-030-035>037-045-252100-
CENTRAL WISCONSIN

CITY           SKY/WX    TMP DP  RH WIND       PRES   REMARKS
MEDFORD        LGT RAIN  54  51  92 W12       30.06R
WAUSAU         CLOUDY    62  52  69 W16       30.01F
MOSINEE        CLOUDY    63  55  77 W12G17    30.04F
MARSHFIELD     PTSUNNY   61  51  70 W14G23    30.04F
WISC RAPIDS    CLOUDY    63  54  72 NW7G20    30.06F
STEVENS POINT  CLOUDY    61  51  70 W10G20    30.05S
WAUPACA        PTSUNNY   68  49  50 W12G20    30.03F
SHAWANO        CLOUDY    67  52  58 W6        30.00S
CLINTONVILLE   MOSUNNY   68  48  49 W16       30.01S
WAUTOMA        NOT AVBL
$$

WIZ038-039-048-051-252100-
FOX VALLEY

CITY           SKY/WX    TMP DP  RH WIND       PRES   REMARKS
NWS GREEN BAY  PTSUNNY   70  53  54 W17G23    29.99F
APPLETON       PTSUNNY   66  46  48 W16       30.01F
OSHKOSH        PTSUNNY   67  52  58 W9        30.03F
FOND DU LAC    PTSUNNY   68  49  50 W15       30.04F
$$

WIZ022-050-052-252100-
EAST CENTRAL WISCONSIN

CITY           SKY/WX    TMP DP  RH WIND       PRES   REMARKS
EPHRAIM        CLOUDY    65  53  66 NW5       29.98R
WASHINGTON ISL CLOUDY    63  51  66 NW3       29.97S
STURGEON BAY   RAIN      59  53  80 W6          N/A
MANITOWOC      CLOUDY    64  54  69 W9        30.02R
SHEBOYGAN      CLOUDY    68  52  56 W15G24    30.02F
$$

LMZ563-521-522-541>543-252100-
LAKESHORE

STATION/POSITION TIME  TEMP    WIND        PRES    VSBY  WAVE
                       AIR SEA DIR/SP/G                  HT/PER
                 (UTC) (F)     (DEG/KT/KT) (MB)    (MI)  (FT/S)
SHEBOYGAN LKSHOR 2000   66     290/ 17/ 20 1016.4S
KEWAUNEE LKSHORE 1942   67     130/  8/ 10 1015.2F
NORTHPORT PIER   1940   63     330/  3/  6 1015.2S
N MID LAKE BUOY  1950   58 58  200/  6/  6 1015.9S         1/ 4
S GREEN BAY BUOY 2000   60      60/  6/ 10 1015.4
CHAMBERS ISLAND  1940   65     140/  4/  7 1014.9S
MENOMINEE LKSHOR 1948          170/ 10/ 12 1014.1F
$$



USA.gov is the U.S. government's official web portal to all federal, state and local government web resources and services.